Location: Corcelles
(46.1547°N, 4.7234°E)
Time: 10:49:04
(UTC+00:00)

Cosmos 1500 - Pass Details

Date: 14 July 2020
Orbit: 498 x 521 km, 82.5° (Epoch: 05 August)

Event Time Altitude Azimuth Distance (km) Brightness Sun altitude
Exits shadow 00:58:24 29° 123° (ESE) 955 4.4 -20.3°
Maximum altitude 00:59:20 34° 92° (E) 861 4.4 -20.3°
Drops below altitude 10° 01:02:48 10° 27° (NNE) 1,736 7.1 -20.1°
Sets 01:05:03 0° 18° (NNE) 2,622 8.4 -19.9°
